This is the latest recevied weather packets stored in our database for station/object Seibranz. If no packets are shown the sender has not sent any weather packets the latest 10 day(s).
| Time | Temp. | Humidity | Pressure | Rain* | Wind** | Luminosity | Snow |
|---|---|---|---|---|---|---|---|
| 1788534131 | 26.67° C | 48% | 1014.8 hPa | 0 mm | - | - | - |
| 1788532330 | 27.22° C | 46% | 1014.9 hPa | 0 mm | - | - | - |
| 1788530531 | 26.67° C | 50% | 1015.3 hPa | 0 mm | - | - | - |
| 1788528730 | 26.67° C | 47% | 1015.5 hPa | 0 mm | - | - | - |
| 1788526931 | 26.67° C | 47% | 1015.8 hPa | 0 mm | - | - | - |
| 1788525130 | 26.11° C | 49% | 1016.2 hPa | 0 mm | - | - | - |
| 1788523331 | 25.56° C | 49% | 1016.5 hPa | 0 mm | - | - | - |
| 1788521530 | 25.56° C | 50% | 1016.8 hPa | 0 mm | - | - | - |
| 1788519731 | 24.44° C | 56% | 1017.3 hPa | 0 mm | - | - | - |
| 1788517930 | 23.89° C | 55% | 1017.8 hPa | 0 mm | - | - | - |
| 1788516130 | 23.33° C | 55% | 1018.2 hPa | 0 mm | - | - | - |
| 1788514330 | 22.78° C | 57% | 1018.5 hPa | 0 mm | - | - | - |
| 1788512530 | 21.67° C | 64% | 1018.8 hPa | 0 mm | - | - | - |
| 1788510730 | 21.11° C | 65% | 1018.9 hPa | 0 mm | - | - | - |
| 1788508932 | 20.56° C | 68% | 1019.1 hPa | 0 mm | - | - | - |
| 1788507130 | 18.89° C | 70% | 1019.4 hPa | 0 mm | - | - | - |
| 1788505329 | 17.78° C | 73% | 1019.6 hPa | 0 mm | - | - | - |
| 1788503530 | 16.67° C | 73% | 1019.6 hPa | 0 mm | - | - | - |
| 1788501738 | 15.56° C | 76% | 1019.6 hPa | 0 mm | - | - | - |
| 1788499930 | 14.44° C | 81% | 1019.6 hPa | 0 mm | - | - | - |
| 1788498129 | 14.44° C | 79% | 1019.8 hPa | 0 mm | - | - | - |
| 1788496329 | 15° C | 78% | 1019.9 hPa | 0 mm | - | - | - |
| 1788494531 | 14.44° C | 79% | 1020.4 hPa | 0 mm | - | - | - |
| 1788492730 | 15° C | 78% | 1020.4 hPa | 0 mm | - | - | - |
| 1788490930 | 15.56° C | 77% | 1020.5 hPa | 0 mm | - | - | - |
* Rain since midnight (hover to see other rain measurements)
** Current wind speed in m/s (hover to see current wind gust speed)